sat.trackr.live / text

‹ back to catalog

STARLINK-36854

NORAD 68312 · 2026-057U

PAYLOAD ACTIVE UNKNOWN

§ Identity

Operator
Country
US
Launch date
2026-03-20
Launch site
AFWTR
Launch vehicle
Mass (kg)
RCS (m²)

Purposes: comms

External: N2YO · Heavens-Above · Gunter

§ Orbital elements

Epoch: 2026-05-24T22:25:36.136128Z

Period
91.42 min
Inclination
97.2848°
Eccentricity
0.0001304
Mean motion
15.75199365 rev/d
Perigee alt
343.2 km
Apogee alt
344.9 km
Semi-major
6,722.2 km
B*
1.6855e-3
RAAN
271.2625°
Arg perigee
79.8191°
Mean anomaly
280.3221°
Rev number
1,029

§ Raw data

STARLINK-368541 68312U 26057U   26144.93444602  .00259158  00000+0  16855-2 0  99952 68312  97.2848 271.2625 0001304  79.8191 280.3221 15.75199365 10299

JSON: /api/v1/satellites/68312 · /tle

For live sub-satellite position, see the globe view (requires WebGL).

§ Visibility from observer

Set your observer location to see the next 7 days of passes ≥ 10°. The values pass through the URL so the page stays shareable.

No JS? Fill the form by hand. The geolocation button needs JavaScript.